Weather History for KESC - July, 2014

Change the Weather History Date:

Thursday, July 31, 2014

  Actual Average Record
Temperature  
Mean Temperature 61 °F -  
Max Temperature 80 °F 75 °F 88 °F (1959)
Min Temperature 44 °F 57 °F 44 °F (1998)
Degree Days  
Heating Degree Days 4    
Growing Degree Days 11 (Base 50)    
Moisture  
Dew Point 51 °F    
Average Humidity 69    
Maximum Humidity 94    
Minimum Humidity 32    
Precipitation  
Precipitation 0.01 in - - ()
Sea Level Pressure  
Sea Level Pressure 29.94 in    
Wind  
Wind Speed 4 mph (West)    
Max Wind Speed 16 mph    
Max Gust Speed 20 mph    
Visibility 8 miles    
Events      
Averages and records for this station are not official NWS values.
T = Trace of Precipitation, MM = Missing Value Source: NWS Daily Summary

Daily Weather History Graph

Daily Weather History Graph

Search for Another Location

Airport or City:

Trip Planner

Search our weather history database for the weather conditions in past years. The results will help you decide how hot, cold, wet, or windy it might be!

Date:

Astronomy

Jul. 31, 2014 Rise Set
Actual Time 6:30 AM EDT 9:18 PM EDT
Civil Twilight 5:55 AM EDT 9:52 PM EDT
Nautical Twilight 5:12 AM EDT 10:36 PM EDT
Astronomical Twilight 4:20 AM EDT 11:27 PM EDT
Moon 11:13 AM EDT (7/31) 11:13 PM EDT (7/31)
Length of Visible Light 15h 56m
Length of Day
14h 47m
Waxing Crescent, 19% of the Moon is Illuminated
Jul 31
Waxing Crescent
Aug 3
First Quarter
Aug 10
Full
Aug 17
Last Quarter
Aug 25
New

Hourly Weather History & Observations

Time (EDT) Temp. Windchill Dew Point Humidity Pressure Visibility Wind Dir Wind Speed Gust Speed Precip Events Conditions
12:15 AM 53.6 °F - 51.8 °F 94% 29.96 in 10.0 mi NW 3.5 mph - N/A   Clear
12:35 AM 53.6 °F - 51.8 °F 94% 29.96 in 10.0 mi NW 3.5 mph - N/A   Clear
12:55 AM 53.6 °F - 50.0 °F 88% 29.96 in 5.0 mi Calm Calm - N/A   Clear
1:15 AM 51.8 °F - 48.2 °F 88% 29.96 in 0.8 mi Calm Calm - N/A   Unknown
1:35 AM 51.8 °F - 48.2 °F 88% 29.96 in 0.8 mi Calm Calm - N/A   Mostly Cloudy
1:55 AM 51.8 °F - 48.2 °F 88% 29.96 in 1.0 mi Calm Calm - N/A   Mostly Cloudy
2:15 AM 50.0 °F - 46.4 °F 87% 29.96 in 0.5 mi Calm Calm - N/A   Overcast
2:35 AM 48.2 °F - 44.6 °F 87% 29.96 in 3.0 mi Calm Calm - N/A   Scattered Clouds
2:55 AM 48.2 °F - 44.6 °F 87% 29.95 in 0.5 mi Calm Calm - N/A   Overcast
3:15 AM 48.2 °F - 44.6 °F 87% 29.95 in 0.5 mi Calm Calm - N/A   Overcast
3:35 AM 48.2 °F - 44.6 °F 87% 29.95 in 0.5 mi Calm Calm - N/A   Overcast
3:55 AM 46.4 °F - 42.8 °F 87% 29.95 in 3.0 mi Calm Calm - N/A   Partly Cloudy
4:35 AM 46.4 °F - 42.8 °F 87% 29.95 in 1.0 mi Calm Calm - N/A   Clear
4:55 AM 44.6 °F 43.1 °F 42.8 °F 93% 29.94 in 10.0 mi NW 3.5 mph - N/A   Clear
5:15 AM 46.4 °F 44.3 °F 42.8 °F 87% 29.93 in 8.0 mi WNW 4.6 mph - N/A   Clear
5:35 AM 48.2 °F - 44.6 °F 87% 29.93 in 9.0 mi WNW 4.6 mph - N/A   Clear
5:55 AM 51.8 °F - 48.2 °F 88% 29.94 in 10.0 mi NW 4.6 mph - N/A   Clear
6:15 AM 48.2 °F - 44.6 °F 87% 29.94 in 9.0 mi WNW 5.8 mph - N/A   Clear
6:35 AM 50.0 °F - 46.4 °F 87% 29.94 in 9.0 mi Calm Calm - N/A   Clear
6:55 AM 50.0 °F - 46.4 °F 87% 29.94 in 0.8 mi Calm Calm - N/A   Unknown
7:15 AM 48.2 °F - 44.6 °F 87% 29.94 in 0.2 mi WNW 3.5 mph - N/A   Overcast
7:35 AM 48.2 °F - 44.6 °F 87% 29.94 in 3.0 mi WNW 3.5 mph - N/A   Partly Cloudy
7:55 AM 51.8 °F - 48.2 °F 88% 29.94 in 10.0 mi Calm Calm - N/A   Clear
8:15 AM 53.6 °F - 50.0 °F 88% 29.95 in 10.0 mi Calm Calm - N/A   Clear
8:35 AM 55.4 °F - 51.8 °F 88% 29.95 in 10.0 mi Calm Calm - N/A   Partly Cloudy
8:55 AM 57.2 °F - 53.6 °F 88% 29.94 in 10.0 mi WSW 3.5 mph - N/A   Partly Cloudy
9:15 AM 60.8 °F - 53.6 °F 77% 29.94 in 10.0 mi SW 3.5 mph - N/A   Partly Cloudy
9:35 AM 62.6 °F - 55.4 °F 77% 29.95 in 10.0 mi WSW 3.5 mph - N/A   Clear
9:55 AM 64.4 °F - 55.4 °F 73% 29.94 in 10.0 mi West 4.6 mph - N/A   Partly Cloudy
10:15 AM 64.4 °F - 55.4 °F 73% 29.95 in 10.0 mi WSW 5.8 mph - N/A   Mostly Cloudy
10:35 AM 64.4 °F - 55.4 °F 73% 29.95 in 10.0 mi West 4.6 mph - N/A   Overcast
10:55 AM 66.2 °F - 55.4 °F 68% 29.95 in 10.0 mi Calm Calm - N/A   Mostly Cloudy
11:15 AM 69.8 °F - 55.4 °F 60% 29.94 in 10.0 mi WNW 4.6 mph - N/A   Partly Cloudy
11:35 AM 71.6 °F - 57.2 °F 60% 29.94 in 10.0 mi South 5.8 mph - N/A   Clear
11:55 AM 71.6 °F - 57.2 °F 60% 29.94 in 1.5 mi South 5.8 mph - 0.01 in   Clear
12:15 PM 71.6 °F - 57.2 °F 60% 29.93 in 10.0 mi South 8.1 mph - N/A   Clear
12:35 PM 71.6 °F - 57.2 °F 60% 29.93 in 10.0 mi South 11.5 mph 17.3 mph N/A   Scattered Clouds
12:55 PM 69.8 °F - 57.2 °F 64% 29.93 in 10.0 mi South 12.7 mph - N/A   Mostly Cloudy
1:15 PM 68.0 °F - 57.2 °F 68% 29.93 in 10.0 mi South 12.7 mph - N/A   Scattered Clouds
1:35 PM 69.8 °F - 57.2 °F 64% 29.93 in 10.0 mi South 12.7 mph 17.3 mph N/A   Mostly Cloudy
1:55 PM 71.6 °F - 59.0 °F 64% 29.93 in 10.0 mi South 9.2 mph - N/A   Scattered Clouds
2:15 PM 73.4 °F - 57.2 °F 57% 29.93 in 10.0 mi SSW 6.9 mph - N/A   Scattered Clouds
2:35 PM 73.4 °F - 57.2 °F 57% 29.92 in 10.0 mi SSW 11.5 mph - N/A   Scattered Clouds
2:55 PM 71.6 °F - 57.2 °F 60% 29.92 in 10.0 mi South 10.4 mph - N/A   Mostly Cloudy
3:15 PM 75.2 °F - 57.2 °F 53% 29.92 in 10.0 mi South 8.1 mph - N/A   Partly Cloudy
3:35 PM 78.8 °F - 53.6 °F 42% 29.92 in 10.0 mi West 9.2 mph - N/A   Partly Cloudy
3:55 PM 73.4 °F - 57.2 °F 57% 29.92 in 10.0 mi SSW 10.4 mph - N/A   Mostly Cloudy
4:15 PM 73.4 °F - 57.2 °F 57% 29.92 in 10.0 mi West 8.1 mph - N/A   Mostly Cloudy
4:35 PM 78.8 °F - 50.0 °F 36% 29.92 in 10.0 mi WNW 11.5 mph 16.1 mph N/A   Partly Cloudy
4:55 PM 78.8 °F - 51.8 °F 39% 29.92 in 10.0 mi NW 10.4 mph - N/A   Clear
5:15 PM 78.8 °F - 48.2 °F 34% 29.92 in 10.0 mi WNW 12.7 mph 17.3 mph N/A   Partly Cloudy
5:35 PM 78.8 °F - 48.2 °F 34% 29.91 in 10.0 mi WNW 13.8 mph 19.6 mph N/A   Clear
5:55 PM 78.8 °F - 46.4 °F 32% 29.91 in 10.0 mi WNW 16.1 mph - N/A   Clear
6:15 PM 78.8 °F - 48.2 °F 34% 29.92 in 10.0 mi WNW 12.7 mph 17.3 mph N/A   Clear
6:35 PM 78.8 °F - 48.2 °F 34% 29.92 in 10.0 mi NW 12.7 mph 17.3 mph N/A   Partly Cloudy
6:55 PM 78.8 °F - 46.4 °F 32% 29.93 in 10.0 mi WNW 9.2 mph - N/A   Clear
7:15 PM 77.0 °F - 48.2 °F 36% 29.94 in 10.0 mi NNW 9.2 mph - N/A   Clear
7:35 PM 75.2 °F - 51.8 °F 44% 29.95 in 10.0 mi North 8.1 mph - N/A   Mostly Cloudy
7:55 PM 73.4 °F - 53.6 °F 50% 29.95 in 10.0 mi NE 8.1 mph - N/A   Scattered Clouds
8:15 PM 73.4 °F - 55.4 °F 53% 29.95 in 10.0 mi ENE 8.1 mph - N/A   Clear
8:35 PM 71.6 °F - 55.4 °F 57% 29.95 in 10.0 mi ENE 5.8 mph - N/A   Clear
9:15 PM 69.8 °F - 53.6 °F 56% 29.96 in 10.0 mi ENE 4.6 mph - N/A   Clear
9:35 PM 68.0 °F - 53.6 °F 60% 29.97 in 10.0 mi North 3.5 mph - N/A   Partly Cloudy
9:55 PM 66.2 °F - 51.8 °F 60% 29.97 in 10.0 mi NNE 4.6 mph - N/A   Clear
10:15 PM 66.2 °F - 51.8 °F 60% 29.98 in 10.0 mi NE 3.5 mph - N/A   Clear
10:35 PM 62.6 °F - 51.8 °F 68% 29.98 in 10.0 mi North 3.5 mph - N/A   Clear
10:55 PM 60.8 °F - 51.8 °F 72% 29.98 in 10.0 mi Calm Calm - N/A   Clear
11:15 PM 57.2 °F - 51.8 °F 82% 29.98 in 10.0 mi Calm Calm - N/A   Clear
11:35 PM 57.2 °F - 51.8 °F 82% 29.98 in 10.0 mi Calm Calm - N/A   Clear